Location: Arborea
(39.7744°N, 8.5819°E)
Time: 06:03:20
(UTC+00:00)

Hubble Space Telescope - Visible Passes

Search period start: 26 February 2024 00:00
Search period end: 07 March 2024 00:00
Orbit: 516 x 519 km, 28.5° (Epoch: 25 February)

Date Brightness Start Highest point End Pass type
(mag) Time Alt. Az. Time Alt. Az. Time Alt. Az.
26 Feb 3.1 17:53:05 10° S 17:54:23 11° SSE 17:55:43 10° SSE visible
26 Feb 3.4 19:31:51 10° SW 19:32:24 12° SSW 19:32:24 12° SSW visible
27 Feb 3.0 19:14:22 10° SW 19:16:04 15° SSW 19:16:04 15° SSW visible
28 Feb 2.8 18:56:54 10° SW 18:59:25 16° S 18:59:43 16° S visible
29 Feb 2.8 18:39:26 10° SW 18:41:55 16° S 18:43:21 14° SSE visible
01 Mar 3.0 18:21:59 10° SW 18:24:24 15° S 18:26:48 10° SSE visible
02 Mar 3.1 18:04:34 10° SW 18:06:52 15° S 18:09:10 10° SSE visible
03 Mar 3.2 17:47:10 10° SW 17:49:20 14° S 17:51:30 10° SSE visible
